Location: Peterborough
(44.3091°N, 78.3197°W)
Time: 15:50:07
(UTC-04:00)

Transit 2A - Pass Details

Date: 26 March 2023
Orbit: 591 x 964 km, 66.7° (Epoch: 04 June)

Event Time Altitude Azimuth Distance (km) Brightness Sun altitude
Rises 06:52:27 0° 233° (SW) 3,223 8.7 -3.2°
Reaches altitude 10° 06:54:51 10° 240° (WSW) 2,359 8.0 -2.8°
Maximum altitude 07:00:03 43° 311° (NW) 1,185 6.7 -1.9°
Drops below altitude 10° 07:05:46 10° 22° (NNE) 2,598 9.1 -0.8°
Sets 07:08:33 0° 29° (NNE) 3,586 10.0 -0.3°
